"Timestamp","TZ","WindDir_Mean (deg)","WindSpd_Mean (km/h)","WindSpd_Min (km/h)","WindSpd_Max (km/h)","Temp_Mean (deg)","RH_Mean (%)","MSLP_Mean (hPa)","Rain_Acc (mm)","Rain_Intensity (mm/h)","Hail_Acc (hits/cm2)","Hail_Intensity (hits/cm2hr)","Solar_Mean (W/m2)"
2023/10/29 00:00:00.014,n,235,1.08,0.36,2.16,16.6,62.8,1023.72,0,0,0,0,0.038261
2023/10/29 00:01:00.002,n,270,3.96,2.88,5.04,16.5,63,1023.72,0,0,0,0,0.038261
2023/10/29 00:02:00.001,n,215,1.08,0.36,2.16,16.5,63,1023.72,0,0,0,0,0.040054
2023/10/29 00:03:00.002,n,263,0.72,0.36,0.72,16.5,63,1023.62,0,0,0,0,0.038261
2023/10/29 00:04:00.002,n,194,0.72,0.36,1.44,16.5,63.1,1023.62,0,0,0,0,0.038261
2023/10/29 00:05:00.004,n,266,0.72,0,1.8,16.5,63.5,1023.62,0,0,0,0,0.036545
2023/10/29 00:06:00.008,n,273,4.32,3.96,4.68,16.5,63.3,1023.62,0,0,0,0,0.037422
2023/10/29 00:07:00.009,n,282,1.44,0.36,1.8,16.5,63.4,1023.62,0,0,0,0,0.037422
2023/10/29 00:08:00.011,n,290,1.08,0.36,2.16,16.5,63.7,1023.62,0,0,0,0,0.039177
2023/10/29 00:09:00.014,n,266,0.72,0.36,1.44,16.5,63.5,1023.62,0,0,0,0,0.040054
2023/10/29 00:10:00.001,n,242,1.44,1.08,2.16,16.4,63.3,1023.62,0,0,0,0,0.040894
2023/10/29 00:11:00.001,n,269,2.16,1.8,2.16,16.4,63.3,1023.62,0,0,0,0,0.039177
2023/10/29 00:12:00.002,n,257,2.88,2.88,3.24,16.4,63.3,1023.62,0,0,0,0,0.037422
2023/10/29 00:13:00.005,n,256,2.88,2.52,3.24,16.4,63.4,1023.62,0,0,0,0,0.035667
2023/10/29 00:14:00.011,n,263,3.24,2.88,3.96,16.3,63.6,1023.62,0,0,0,0,0.033073
2023/10/29 00:15:00.002,n,255,3.96,3.24,3.96,16.3,63.5,1023.62,0,0,0,0,0.036545
2023/10/29 00:16:00.005,n,268,3.6,3.24,3.6,16.3,63.5,1023.52,0,0,0,0,0.038261
2023/10/29 00:17:00.007,n,252,1.8,1.44,2.52,16.3,63.5,1023.52,0,0,0,0,0.038261
2023/10/29 00:18:00.010,n,250,2.16,1.08,2.52,16.3,63.7,1023.52,0,0,0,0,0.034828
2023/10/29 00:19:00.002,n,219,1.8,1.44,2.16,16.3,63.7,1023.52,0,0,0,0,0.033913
2023/10/29 00:20:00.001,n,245,2.88,2.52,2.88,16.3,63.7,1023.52,0,0,0,0,0.034828
2023/10/29 00:21:00.001,n,257,2.16,2.16,2.16,16.3,63.7,1023.42,0,0,0,0,0.036545
2023/10/29 00:22:00.006,n,259,2.52,1.8,2.88,16.3,63.9,1023.42,0,0,0,0,0.032196
2023/10/29 00:23:00.010,n,258,2.52,1.8,3.6,16.3,64,1023.42,0,0,0,0,0.033073
2023/10/29 00:24:00.001,n,262,3.6,3.24,3.96,16.3,63.8,1023.42,0,0,0,0,0.033073
2023/10/29 00:25:00.001,n,285,3.6,2.16,4.68,16.3,64,1023.32,0,0,0,0,0.032196
2023/10/29 00:26:00.001,n,240,2.52,2.16,2.88,16.3,63.8,1023.32,0,0,0,0,0.028687
2023/10/29 00:27:00.004,n,265,2.52,2.16,2.52,16.200002,64,1023.32,0,0,0,0,0.035667
2023/10/29 00:28:00.001,n,252,2.88,2.52,3.6,16.200002,64,1023.32,0,0,0,0,0.033913
2023/10/29 00:29:00.001,n,287,2.52,2.52,3.24,16.200002,64,1023.22,0,0,0,0,0.032196
2023/10/29 00:30:00.001,n,255,1.8,1.8,2.16,16.200002,64.1,1023.22,0,0,0,0,0.029564
2023/10/29 00:31:00.003,n,251,2.16,2.16,2.52,16.200002,64.1,1023.22,0,0,0,0,0.029564
2023/10/29 00:32:00.004,n,276,1.8,1.44,2.16,16.200002,64.4,1023.22,0,0,0,0,0.032196
2023/10/29 00:33:00.007,n,255,2.16,1.8,2.16,16.200002,64.199996,1023.12,0,0,0,0,0.031319
2023/10/29 00:34:00.004,n,291,1.8,1.44,2.52,16.200002,64.5,1023.12,0,0,0,0,0.028687
2023/10/29 00:35:00.008,n,276,3.24,2.88,3.24,16.200002,64.300004,1023.12,0,0,0,0,0.030479
2023/10/29 00:36:00.008,n,264,3.96,3.24,5.04,16.200002,64,1023.12,0,0,0,0,0.030479
2023/10/29 00:37:00.001,n,280,0.72,0.36,1.44,16.1,64.1,1023.12,0,0,0,0,0.027847
2023/10/29 00:38:00.001,n,241,1.8,0.36,2.52,16.1,64.1,1023.12,0,0,0,0,0.027847
2023/10/29 00:39:00.001,n,247,2.16,2.16,2.52,16.1,64.1,1023.12,0,0,0,0,0.026093
2023/10/29 00:40:00.001,n,312,1.44,1.08,1.8,16.1,64.199996,1023.12,0,0,0,0,0.026093
2023/10/29 00:41:00.002,n,236,1.08,0.72,1.44,16.1,64.1,1023.12,0,0,0,0,0.028687
2023/10/29 00:42:00.002,n,282,2.16,1.44,2.52,16.1,64.1,1023.02,0,0,0,0,0.027847
2023/10/29 00:43:00.002,n,227,2.16,1.8,2.16,16.1,64.1,1023.02,0,0,0,0,0.026093
2023/10/29 00:44:00.001,n,265,1.8,1.44,2.16,16.1,64.1,1023.02,0,0,0,0,0.02697
2023/10/29 00:45:00.004,n,284,1.8,1.08,2.16,16,64.1,1023.02,0,0,0,0,0.023499
2023/10/29 00:46:00.003,n,261,2.88,2.52,3.24,16,64.4,1023.02,0,0,0,0,0.024338
2023/10/29 00:47:00.002,n,256,2.88,2.52,3.6,16.1,64.199996,1023.02,0,0,0,0,0.025215
2023/10/29 00:48:00.005,n,264,4.68,3.6,5.4,16.1,64.199996,1023.02,0,0,0,0,0.032196
2023/10/29 00:49:00.001,n,268,4.32,3.24,4.68,16.1,64.6,1022.92,0,0,0,0,0.033913
2023/10/29 00:50:00.004,n,256,2.16,1.44,3.24,16.1,64.5,1023.02,0,0,0,0,0.034828
2023/10/29 00:51:00.001,n,258,5.4,4.32,6.12,16.1,64.5,1023.02,0,0,0,0,0.036545
2023/10/29 00:52:00.015,n,275,3.6,2.88,4.32,16.1,64.6,1023.02,0,0,0,0,0.041771
2023/10/29 00:53:00.017,n,261,2.16,1.08,2.88,16.1,64.699996,1023.02,0,0,0,0,0.044403
2023/10/29 00:54:00.017,n,274,3.6,2.88,4.32,16.200002,64.699996,1022.92,0,0,0,0,0.049591
2023/10/29 00:55:00.007,n,329,1.44,0.72,2.16,16.200002,64.800004,1022.92,0,0,0,0,0.053101
2023/10/29 00:56:00.001,n,272,1.44,0.72,3.24,16.200002,64.6,1022.92,0,0,0,0,0.051346
2023/10/29 00:57:00.004,n,261,1.44,1.08,1.8,16.200002,64.800004,1022.92,0,0,0,0,0.026131
2023/10/29 00:58:00.007,n,122,2.16,1.8,2.52,16.200002,64.4,1022.92,0,0,0,0,0.032196
2023/10/29 00:59:00.001,n,275,1.8,1.08,2.52,16.200002,64.4,1022.92,0,0,0,0,0.034828
2023/10/29 01:00:00.005,n,328,1.08,0.72,1.08,16.200002,64.300004,1022.92,0,0,0,0,0.039177
2023/10/29 01:01:00.009,n,216,2.16,1.44,3.24,16.200002,64.300004,1022.92,0,0,0,0,0.041771
2023/10/29 01:02:00.011,n,228,1.44,0.72,2.88,16.200002,64.300004,1022.92,0,0,0,0,0.043526
2023/10/29 01:03:00.013,n,321,1.8,1.08,2.16,16.200002,64.199996,1022.82,0,0,0,0,0.046997
2023/10/29 01:04:00.004,n,258,1.44,1.08,1.44,16.200002,64.6,1022.82,0,0,0,0,0.04612
2023/10/29 01:05:00.001,n,266,2.16,0.72,2.88,16.200002,64.5,1022.82,0,0,0,0,0.047874
2023/10/29 01:06:00.001,n,238,1.8,1.44,2.88,16.3,64.800004,1022.82,0,0,0,0,0.053101
2023/10/29 01:07:00.005,n,263,2.88,2.52,3.24,16.3,64.300004,1022.82,0,0,0,0,0.025253
2023/10/29 01:08:00.010,n,252,0.72,0.36,1.44,16.3,64.199996,1022.72,0,0,0,0,0.032234
2023/10/29 01:09:00.010,n,351,0.72,0.36,1.44,16.3,64.199996,1022.72,0,0,0,0,0.035667
2023/10/29 01:10:00.012,n,43,2.16,1.8,2.88,16.3,64.300004,1022.72,0,0,0,0,0.036583
2023/10/29 01:11:00.002,n,171,1.08,1.08,1.44,16.3,64,1022.72,0,0,0,0,0.03746
2023/10/29 01:12:00.013,n,313,0.72,0.36,1.08,16.3,64,1022.72,0,0,0,0,0.040054
2023/10/29 01:13:00.001,n,240,1.08,0.36,2.88,16.200002,64,1022.72,0,0,0,0,0.040894
2023/10/29 01:14:00.001,n,216,2.16,1.44,2.88,16.200002,64,1022.72,0,0,0,0,0.043526
2023/10/29 01:15:00.002,n,42,0.72,0.72,1.08,16.200002,64.1,1022.72,0,0,0,0,0.045242
2023/10/29 01:16:00.002,n,127,1.8,1.44,1.8,16.3,64.1,1022.72,0,0,0,0,0.042648
2023/10/29 01:17:00.010,n,218,1.8,1.44,2.16,16.3,64,1022.72,0,0,0,0,0.047035
2023/10/29 01:18:00.001,n,174,1.08,0.36,2.16,16.3,63.9,1022.62,0,0,0,0,0.047035
2023/10/29 01:19:00.001,n,252,2.52,1.08,3.96,16.3,63.9,1022.62,0,0,0,0,0.028763
2023/10/29 01:20:00.010,n,255,6.12,5.4,6.84,16.3,63.8,1022.62,0,0,0,0,0.02964
2023/10/29 01:21:00.023,n,241,2.16,1.8,2.16,16.3,63.5,1022.62,0,0,0,0,0.033112
2023/10/29 01:22:00.001,n,301,2.52,1.08,3.96,16.200002,63.6,1022.62,0,0,0,0,0.034828
2023/10/29 01:23:00.002,n,273,3.6,2.88,3.96,16.200002,63.8,1022.62,0,0,0,0,0.035706
2023/10/29 01:24:00.001,n,301,1.08,0.72,1.44,16.200002,63.7,1022.52,0,0,0,0,0.03746
2023/10/29 01:25:00.010,n,285,3.6,3.6,3.96,16.200002,63.8,1022.52,0,0,0,0,0.03746
2023/10/29 01:26:00.017,n,282,3.96,3.6,4.32,16.200002,63.8,1022.52,0,0,0,0,0.040054
2023/10/29 01:27:00.002,n,264,3.6,3.6,3.6,16.200002,64,1022.52,0,0,0,0,0.040054
2023/10/29 01:28:00.015,n,299,3.96,2.52,4.68,16.200002,64.4,1022.52,0,0,0,0,0.040054
2023/10/29 01:29:00.014,n,219,2.88,2.52,3.6,16.200002,64,1022.52,0,0,0,0,0.042686
2023/10/29 01:30:00.010,n,250,5.76,4.68,6.12,16.200002,64.1,1022.42,0,0,0,0,0.040054
2023/10/29 01:31:00.002,n,288,5.76,4.68,6.48,16.200002,64.1,1022.42,0,0,0,0,0.041809
2023/10/29 01:32:00.001,n,270,8.28,7.92,8.64,16.200002,63.9,1022.42,0,0,0,0,0.047035
2023/10/29 01:33:00.002,n,269,8.64,8.28,9,16.1,63.4,1022.42,0,0,0,0,0.047035
2023/10/29 01:34:00.001,n,250,7.92,7.2,9,16.1,63.7,1022.42,0,0,0,0,0.04528
2023/10/29 01:35:00.016,n,283,4.68,3.6,5.4,16,64.1,1022.42,0,0,0,0,0.04528
2023/10/29 01:36:00.004,n,272,6.12,5.04,7.2,16,64.1,1022.42,0,0,0,0,0.047035
2023/10/29 01:37:00.008,n,273,6.48,5.76,7.2,16,64.5,1022.42,0,0,0,0,0.047913
2023/10/29 01:38:00.014,n,274,6.48,6.12,7.56,16,64.199996,1022.42,0,0,0,0,0.046196
2023/10/29 01:39:00.011,n,269,5.76,5.4,5.76,16,64.300004,1022.32,0,0,0,0,0.047035
2023/10/29 01:40:00.001,n,241,3.96,3.6,4.32,16,64.300004,1022.32,0,0,0,0,0.047913
2023/10/29 01:41:00.001,n,235,2.16,1.8,2.52,15.9,64.4,1022.32,0,0,0,0,0.048752
2023/10/29 01:42:00.001,n,259,5.4,5.04,6.12,15.9,64.300004,1022.32,0,0,0,0,0.050545
2023/10/29 01:43:00.009,n,246,2.88,2.52,3.6,15.9,64.199996,1022.32,0,0,0,0,0.023499
2023/10/29 01:44:00.008,n,267,5.04,4.68,5.4,15.9,64.199996,1022.32,0,0,0,0,0.029602
2023/10/29 01:45:00.010,n,271,4.32,3.6,5.04,15.9,64.1,1022.32,0,0,0,0,0.029602
2023/10/29 01:46:00.003,n,254,6.12,5.76,6.84,15.9,64.300004,1022.32,0,0,0,0,0.030479
2023/10/29 01:47:00.010,n,270,8.64,7.92,9.36,15.9,63.9,1022.22,0,0,0,0,0.031319
2023/10/29 01:48:00.008,n,253,8.28,7.56,9,15.9,63.9,1022.22,0,0,0,0,0.031319
2023/10/29 01:49:00.002,n,258,5.76,4.32,6.84,15.9,63.9,1022.22,0,0,0,0,0.030479
2023/10/29 01:50:00.011,n,248,2.88,2.16,3.6,15.9,63.9,1022.22,0,0,0,0,0.034828
2023/10/29 01:51:00.001,n,274,1.8,1.44,1.8,15.8,63.9,1022.22,0,0,0,0,0.031319
2023/10/29 01:52:00.002,n,262,4.32,2.52,5.76,15.8,63.9,1022.22,0,0,0,0,0.033073
2023/10/29 01:53:00.004,n,273,3.96,1.08,5.76,15.8,63.8,1022.22,0,0,0,0,0.034828
2023/10/29 01:54:00.010,n,251,3.96,3.6,4.32,15.8,63.9,1022.12,0,0,0,0,0.032196
2023/10/29 01:55:00.005,n,234,1.44,1.44,1.44,15.8,63.9,1022.12,0,0,0,0,0.033073
2023/10/29 01:56:00.015,n,261,1.44,1.08,1.8,15.9,64.1,1022.12,0,0,0,0,0.034828
2023/10/29 01:57:00.005,n,263,1.8,0.72,2.88,15.9,64.1,1022.12,0,0,0,0,0.032196
2023/10/29 01:58:00.005,n,264,3.96,3.24,4.32,15.9,64,1022.12,0,0,0,0,0.032196
2023/10/29 01:59:00.002,n,5,0.72,0.36,1.08,15.9,64.199996,1022.12,0,0,0,0,0.036545
2023/10/29 02:00:00.005,n,208,2.52,1.8,3.24,15.9,64.199996,1022.02,0,0,0,0,0.033951
2023/10/29 02:01:00.001,n,135,1.8,0.36,2.52,15.9,64.300004,1022.02,0,0,0,0,0.032196
2023/10/29 02:02:00.012,n,143,1.8,1.8,2.16,15.9,64.300004,1022.02,0,0,0,0,0.036545
2023/10/29 02:03:00.008,n,278,2.16,1.8,3.24,15.9,64.199996,1022.02,0,0,0,0,0.034828
2023/10/29 02:04:00.004,n,280,3.6,3.24,3.96,16,64.4,1022.02,0,0,0,0,0.035667
2023/10/29 02:05:00.001,n,208,0.72,0,2.16,16,64.6,1022.02,0,0,0,0,0.034828
2023/10/29 02:06:00.015,n,258,1.8,1.08,2.16,16,64.5,1021.92,0,0,0,0,0.037422
2023/10/29 02:07:00.001,n,285,2.16,1.08,2.88,16,64.4,1021.92,0,0,0,0,0.035667
2023/10/29 02:08:00.001,n,167,1.8,1.08,2.52,16,64.199996,1021.92,0,0,0,0,0.038261
2023/10/29 02:09:00.001,n,191,1.08,0.72,1.44,16,64.300004,1021.92,0,0,0,0,0.040054
2023/10/29 02:10:00.002,n,192,1.8,0.72,2.88,16,64.300004,1022.02,0,0,0,0,0.034828
2023/10/29 02:11:00.002,n,286,1.44,0.72,2.16,15.9,64.300004,1022.02,0,0,0,0,0.033951
2023/10/29 02:12:00.001,n,306,1.08,0.72,1.8,15.9,64.5,1022.02,0,0,0,0,0.037422
2023/10/29 02:13:00.002,n,275,2.88,1.08,5.04,15.9,64.6,1022.02,0,0,0,0,0.034828
2023/10/29 02:14:00.010,n,135,3.96,3.6,4.32,15.9,64.800004,1022.02,0,0,0,0,0.033951
2023/10/29 02:15:00.006,n,231,6.12,5.76,6.48,15.9,64.699996,1022.02,0,0,0,0,0.033073
2023/10/29 02:16:00.002,n,123,2.16,1.44,2.88,15.9,64.800004,1021.92,0,0,0,0,0.034828
2023/10/29 02:17:00.002,n,231,1.08,0.36,1.8,15.9,64.800004,1021.92,0,0,0,0,0.033951
2023/10/29 02:18:00.005,n,267,1.44,0.72,2.16,15.9,65,1021.92,0,0,0,0,0.036545
2023/10/29 02:19:00.006,n,272,3.6,1.8,4.68,15.9,65,1021.92,0,0,0,0,0.033073
2023/10/29 02:20:00.009,n,264,3.24,2.88,3.96,15.9,65.199996,1021.92,0,0,0,0,0.035667
2023/10/29 02:21:00.007,n,317,2.16,1.44,3.24,15.9,65.1,1021.92,0,0,0,0,0.032196
2023/10/29 02:22:00.007,n,321,0.72,0.36,1.44,15.9,65.5,1021.92,0,0,0,0,0.036545
2023/10/29 02:23:00.010,n,230,2.16,2.16,2.16,15.9,65.6,1021.92,0,0,0,0,0.034828
2023/10/29 02:24:00.018,n,267,1.08,0.72,1.44,15.8,65.300004,1021.92,0,0,0,0,0.030479
2023/10/29 02:25:00.001,n,287,6.12,5.76,6.84,15.8,65.6,1021.92,0,0,0,0,0.031319
2023/10/29 02:26:00.001,n,134,1.44,1.08,1.8,15.8,65.4,1021.92,0,0,0,0,0.034828
2023/10/29 02:27:00.002,n,250,0.72,0.36,1.44,15.8,65.6,1021.92,0,0,0,0,0.036545
2023/10/29 02:28:00.001,n,14,1.44,0.72,1.8,15.8,66.300004,1021.92,0,0,0,0,0.031319
2023/10/29 02:29:00.002,n,268,2.52,1.44,3.24,15.8,65.9,1021.92,0,0,0,0,0.032196
2023/10/29 02:30:00.009,n,269,5.04,5.04,5.04,15.8,65.699996,1021.92,0,0,0,0,0.032196
2023/10/29 02:31:00.001,n,270,5.04,5.04,5.04,15.7,65.699996,1021.92,0,0,0,0,0.031319
2023/10/29 02:32:00.012,n,260,2.88,2.88,3.24,15.7,65.800004,1021.92,0,0,0,0,0.030479
2023/10/29 02:33:00.015,n,36,0.72,0.36,1.08,15.7,66.1,1022.02,0,0,0,0,0.029602
2023/10/29 02:34:00.002,n,263,2.52,2.16,2.88,15.7,66,1022.02,0,0,0,0,0.029602
2023/10/29 02:35:00.001,n,285,3.96,3.6,3.96,15.7,66.199996,1022.02,0,0,0,0,0.029602
2023/10/29 02:36:00.002,n,279,5.04,4.68,5.76,15.7,66.199996,1022.02,0,0,0,0,0.030479
2023/10/29 02:37:00.001,n,296,2.88,1.8,5.04,15.6,66.6,1022.02,0,0,0,0,0.028687
2023/10/29 02:38:00.006,n,258,4.32,3.96,5.04,15.6,66.5,1022.12,0,0,0,0,0.029602
2023/10/29 02:39:00.007,n,284,3.6,1.8,5.04,15.6,66.5,1022.12,0,0,0,0,0.025253
2023/10/29 02:40:00.002,n,280,5.76,3.24,7.56,15.6,66.4,1022.12,0,0,0,0,0.026093
2023/10/29 02:41:00.011,n,270,5.4,5.4,6.12,15.6,66.5,1022.12,0,0,0,0,0.027847
2023/10/29 02:42:00.026,n,245,2.52,1.8,3.24,15.6,66.5,1022.12,0,0,0,0,0.024338
2023/10/29 02:43:00.001,n,296,1.8,1.08,2.16,15.5,66.6,1022.12,0,0,0,0,0.023499
2023/10/29 02:44:00.004,n,258,6.48,5.4,7.56,15.5,66.5,1022.12,0,0,0,0,0.026093
2023/10/29 02:45:00.002,n,255,4.32,3.6,5.04,15.5,66.4,1022.22,0,0,0,0,0.024338
2023/10/29 02:46:00.002,n,291,2.88,1.8,3.6,15.5,66.5,1022.22,0,0,0,0,0.02697
2023/10/29 02:47:00.010,n,270,5.04,3.6,6.12,15.5,66.4,1022.22,0,0,0,0,0.023499
2023/10/29 02:48:00.020,n,310,4.32,2.88,5.04,15.5,66.699996,1022.22,0,0,0,0,0.024338
2023/10/29 02:49:00.001,n,301,5.04,3.24,6.12,15.5,66.699996,1022.22,0,0,0,0,0.022621
2023/10/29 02:50:00.021,n,295,3.6,2.88,4.68,15.5,66.699996,1022.22,0,0,0,0,0.022621
2023/10/29 02:51:00.003,n,275,4.32,3.24,4.68,15.5,66.9,1022.32,0,0,0,0,0.021744
2023/10/29 02:52:00.002,n,308,3.6,2.52,5.04,15.5,67.2,1022.32,0,0,0,0,0.022621
2023/10/29 02:53:00.002,n,86,0.72,0.36,1.44,15.5,67.2,1022.32,0,0,0,0,0.020905
2023/10/29 02:54:00.002,n,167,2.16,2.16,2.88,15.5,67.1,1022.32,0,0,0,0,0.021744
2023/10/29 02:55:00.002,n,220,1.08,0.72,1.8,15.5,67,1022.32,0,0,0,0,0.020905
2023/10/29 02:56:00.001,n,187,1.8,0.72,2.16,15.6,67.1,1022.32,0,0,0,0,0.021744
2023/10/29 02:57:00.001,n,260,4.32,3.24,5.04,15.6,67.3,1022.32,0,0,0,0,0.024338
2023/10/29 02:58:00.006,n,95,1.08,0.36,1.8,15.6,67.2,1022.32,0,0,0,0,0.020905
2023/10/29 02:59:00.001,n,302,2.16,1.8,2.52,15.7,67.3,1022.32,0,0,0,0,0.020027
2023/10/29 03:00:00.008,n,246,1.8,1.08,2.16,15.7,67,1022.32,0,0,0,0,0.020905
2023/10/29 03:01:00.001,n,176,3.24,3.24,3.6,15.7,67.1,1022.32,0,0,0,0,0.021744
2023/10/29 03:02:00.005,n,355,0.72,0.36,1.44,15.7,66.9,1022.32,0,0,0,0,0.022621
2023/10/29 03:03:00.002,n,177,1.08,0.72,1.44,15.7,66.9,1022.32,0,0,0,0,0.018272
2023/10/29 03:04:00.008,n,150,3.6,1.08,4.68,15.7,66.6,1022.32,0,0,0,0,0.022621
2023/10/29 03:05:00.011,n,272,5.04,1.8,7.92,15.7,66.5,1022.22,0,0,0,0,0.021744
2023/10/29 03:06:00.004,n,27,1.44,0.72,2.88,15.7,66.4,1022.32,0,0,0,0,0.022621
2023/10/29 03:07:00.014,n,272,6.12,5.04,6.84,15.7,66.199996,1022.22,0,0,0,0,0.023499
2023/10/29 03:08:00.005,n,278,6.12,6.12,6.48,15.7,66.4,1022.22,0,0,0,0,0.021744
2023/10/29 03:09:00.014,n,127,2.16,1.08,2.88,15.7,66.300004,1022.22,0,0,0,0,0.027847
2023/10/29 03:10:00.003,n,264,2.88,2.52,3.24,15.7,66.4,1022.22,0,0,0,0,0.023499
2023/10/29 03:11:00.003,n,280,5.4,5.04,6.48,15.8,66.199996,1022.32,0,0,0,0,0.023499
2023/10/29 03:12:00.008,n,240,2.16,1.08,2.52,15.8,66.1,1022.32,0,0,0,0,0.025253
2023/10/29 03:13:00.004,n,264,2.88,1.8,3.96,15.7,66.199996,1022.32,0,0,0,0,0.024338
2023/10/29 03:14:00.002,n,259,2.88,2.16,3.24,15.7,66.300004,1022.32,0,0,0,0,0.025253
2023/10/29 03:15:00.009,n,225,1.8,1.44,2.16,15.7,66.4,1022.32,0,0,0,0,0.024338
2023/10/29 03:16:00.005,n,278,4.68,3.24,5.4,15.7,66.300004,1022.32,0,0,0,0,0.024338
2023/10/29 03:17:00.008,n,265,3.24,2.88,3.6,15.7,66.199996,1022.32,0,0,0,0,0.025253
2023/10/29 03:18:00.010,n,283,5.04,3.96,5.4,15.7,66.300004,1022.32,0,0,0,0,0.024338
2023/10/29 03:19:00.001,n,255,4.32,2.88,5.04,15.7,66.199996,1022.32,0,0,0,0,0.025253
2023/10/29 03:20:00.002,n,212,4.32,3.24,4.68,15.7,66.300004,1022.32,0,0,0,0,0.024338
2023/10/29 03:21:00.003,n,268,1.44,1.44,2.16,15.7,66.4,1022.32,0,0,0,0,0.026093
2023/10/29 03:22:00.006,n,260,4.68,3.6,5.76,15.7,66.4,1022.32,0,0,0,0,0.02697
2023/10/29 03:23:00.001,n,173,1.44,0.72,1.8,15.7,66.5,1022.22,0,0,0,0,0.025253
2023/10/29 03:24:00.011,n,298,7.56,6.84,8.64,15.7,66.800004,1022.22,0,0,0,0,0.028687
2023/10/29 03:25:00.002,n,258,4.68,3.24,6.12,15.7,66.6,1022.22,0,0,0,0,0.026093
2023/10/29 03:26:00.014,n,273,8.28,7.56,8.64,15.6,66.5,1022.22,0,0,0,0,0.02697
2023/10/29 03:27:00.005,n,243,7.2,6.12,7.92,15.6,66.4,1022.32,0,0,0,0,0.026093
2023/10/29 03:28:00.011,n,251,9,3.24,9.72,15.6,66.300004,1022.32,0,0,0,0,0.02697
2023/10/29 03:29:00.002,n,287,4.32,2.16,5.76,15.5,66.4,1022.32,0,0,0,0,0.026093
2023/10/29 03:30:00.001,n,271,5.76,5.04,6.48,15.5,66.5,1022.32,0,0,0,0,0.027847
2023/10/29 03:31:00.002,n,250,9.36,9,9.72,15.5,66.300004,1022.32,0,0,0,0,0.026093
2023/10/29 03:32:00.011,n,256,4.68,3.96,6.48,15.5,66.6,1022.42,0,0,0,0,0.025253
2023/10/29 03:33:00.012,n,266,7.56,6.84,8.28,15.4,66.5,1022.42,0,0,0,0,0.025253
2023/10/29 03:34:00.011,n,276,8.28,7.56,9,15.4,66.6,1022.32,0,0,0,0,0.021744
2023/10/29 03:35:00.012,n,219,1.44,0.72,1.8,15.4,66.800004,1022.32,0,0,0,0,0.025253
2023/10/29 03:36:00.015,n,266,3.24,2.88,3.96,15.4,67,1022.42,0,0,0,0,0.025253
2023/10/29 03:37:00.002,n,290,3.24,1.8,4.68,15.4,67.1,1022.42,0,0,0,0,0.02697
2023/10/29 03:38:00.002,n,135,2.88,0.72,4.32,15.4,67.2,1022.42,0,0,0,0,0.022621
2023/10/29 03:39:00.002,n,277,4.32,3.6,5.04,15.4,67.1,1022.42,0,0,0,0,0.025253
2023/10/29 03:40:00.011,n,53,2.52,1.8,3.24,15.4,67.3,1022.42,0,0,0,0,0.023499
2023/10/29 03:41:00.008,n,227,4.32,3.24,5.04,15.4,67.1,1022.42,0,0,0,0,0.025253
2023/10/29 03:42:00.009,n,239,5.04,5.04,6.12,15.4,67,1022.42,0,0,0,0,0.018272
2023/10/29 03:43:00.011,n,293,2.52,1.8,3.24,15.3,67.3,1022.42,0,0,0,0,0.024338
2023/10/29 03:44:00.012,n,274,5.04,3.96,6.48,15.3,67.2,1022.42,0,0,0,0,0.024338
2023/10/29 03:45:00.003,n,305,0.36,0,0.72,15.3,67.4,1022.42,0,0,0,0,0.023499
2023/10/29 03:46:00.002,n,220,1.08,0.72,1.8,15.3,67.5,1022.42,0,0,0,0,0.022621
2023/10/29 03:47:00.002,n,266,2.52,2.16,3.24,15.3,67.6,1022.42,0,0,0,0,0.025253
2023/10/29 03:48:00.011,n,277,5.76,5.04,6.12,15.3,67.8,1022.42,0,0,0,0,0.022621
2023/10/29 03:49:00.006,n,258,3.6,3.24,3.96,15.4,67.7,1022.42,0,0,0,0,0.022621
2023/10/29 03:50:00.011,n,265,2.16,2.16,2.52,15.4,67.9,1022.42,0,0,0,0,0.025253
2023/10/29 03:51:00.002,n,236,3.96,3.6,3.96,15.4,67.9,1022.42,0,0,0,0,0.023499
2023/10/29 03:52:00.001,n,284,5.04,4.32,6.12,15.3,68.1,1022.42,0,0,0,0,0.022621
2023/10/29 03:53:00.011,n,221,2.52,1.44,3.96,15.3,67.9,1022.42,0,0,0,0,0.023499
2023/10/29 03:54:00.010,n,275,5.04,4.68,5.4,15.3,67.9,1022.42,0,0,0,0,0.022621
2023/10/29 03:55:00.001,n,255,6.84,6.12,7.56,15.3,67.7,1022.42,0,0,0,0,0.021744
2023/10/29 03:56:00.003,n,278,6.12,5.4,7.2,15.3,67.7,1022.42,0,0,0,0,0.020905
2023/10/29 03:57:00.002,n,228,5.04,2.88,6.48,15.2,67.6,1022.42,0,0,0,0,0.022621
2023/10/29 03:58:00.006,n,277,4.68,3.96,5.04,15.2,67.5,1022.42,0,0,0,0,0.020027
2023/10/29 03:59:00.001,n,280,6.12,5.4,7.2,15.2,67.5,1022.42,0,0,0,0,0.025253
2023/10/29 04:00:00.001,n,247,6.48,5.76,7.2,15.2,67.6,1022.42,0,0,0,0,0.022621
2023/10/29 04:01:00.007,n,283,3.24,2.52,3.96,15.2,67.7,1022.42,0,0,0,0,0.020027
2023/10/29 04:02:00.007,n,273,8.28,7.92,9,15.2,68,1022.42,0,0,0,0,0.022621
2023/10/29 04:03:00.006,n,272,9,9,9.72,15.2,67.7,1022.42,0,0,0,0,0.030479
2023/10/29 04:04:00.001,n,260,6.48,3.6,9,15.2,67.5,1022.32,0,0,0,0,0.035706
2023/10/29 04:05:00.001,n,264,4.32,3.96,5.04,15.1,67.4,1022.32,0,0,0,0,0.032234
2023/10/29 04:06:00.002,n,266,6.48,5.76,6.84,15.1,67.4,1022.32,0,0,0,0,0.033112
2023/10/29 04:07:00.001,n,277,3.6,2.88,4.32,15.1,67.4,1022.32,0,0,0,0,0.030479
2023/10/29 04:08:00.014,n,260,5.04,5.04,5.4,15.1,67.4,1022.22,0,0,0,0,0.033989
2023/10/29 04:09:00.005,n,288,2.52,1.8,2.88,15.1,67.7,1022.22,0,0,0,0,0.027008
2023/10/29 04:10:00.001,n,295,2.16,1.8,2.52,15.1,67.6,1022.22,0,0,0,0,0.027885
2023/10/29 04:11:00.018,n,141,1.8,1.8,2.16,15.1,67.6,1022.22,0,0,0,0,0.030479
2023/10/29 04:12:00.007,n,239,3.96,3.24,4.68,15.1,67.6,1022.22,0,0,0,0,0.031357
2023/10/29 04:13:00.001,n,251,1.08,0.72,1.44,15.2,67.6,1022.22,0,0,0,0,0.029602
2023/10/29 04:14:00.002,n,265,1.08,0.36,1.8,15.1,67.4,1022.22,0,0,0,0,0.031357
2023/10/29 04:15:00.005,n,262,1.44,0.72,2.16,15.1,67.6,1022.22,0,0,0,0,0.030479
2023/10/29 04:16:00.002,n,225,2.16,2.16,2.52,15.1,67.6,1022.22,0,0,0,0,0.029602
2023/10/29 04:17:00.004,n,245,5.04,3.24,6.12,15.1,67.5,1022.22,0,0,0,0,0.027885
2023/10/29 04:18:00.010,n,258,5.4,5.04,6.12,15.1,67.6,1022.32,0,0,0,0,0.032234
2023/10/29 04:19:00.018,n,270,3.96,2.16,4.32,15.1,67.6,1022.22,0,0,0,0,0.030479
2023/10/29 04:20:00.015,n,301,2.16,1.08,2.88,15.1,67.8,1022.32,0,0,0,0,0.033112
2023/10/29 04:21:00.004,n,237,2.52,2.16,2.52,15.1,67.8,1022.32,0,0,0,0,0.032234
2023/10/29 04:22:00.002,n,264,5.04,3.96,5.4,15,67.9,1022.32,0,0,0,0,0.033112
2023/10/29 04:23:00.002,n,263,3.96,3.6,4.32,15,67.9,1022.32,0,0,0,0,0.033989
2023/10/29 04:24:00.001,n,240,3.24,2.52,3.96,15,68.1,1022.32,0,0,0,0,0.035706
2023/10/29 04:25:00.002,n,279,4.68,4.32,5.04,15,68.2,1022.32,0,0,0,0,0.036583
2023/10/29 04:26:00.002,n,250,4.32,3.6,4.68,15,68.5,1022.32,0,0,0,0,0.039177
2023/10/29 04:27:00.010,n,289,3.24,2.88,3.6,15,68.7,1022.32,0,0,0,0,0.039177
2023/10/29 04:28:00.004,n,236,2.16,1.8,2.88,15,68.7,1022.32,0,0,0,0,0.044403
2023/10/29 04:29:00.012,n,269,6.12,5.76,6.48,15,68.5,1022.32,0,0,0,0,0.047913
2023/10/29 04:30:00.013,n,282,3.96,3.6,5.04,14.9,68.6,1022.32,0,0,0,0,0.051384
2023/10/29 04:31:00.002,n,287,2.52,1.08,3.24,14.9,68.7,1022.32,0,0,0,0,0.06443
2023/10/29 04:32:00.002,n,282,3.96,2.88,4.68,14.9,68.9,1022.32,0,0,0,0,0.074883
2023/10/29 04:33:00.004,n,287,6.84,4.68,8.64,14.9,68.7,1022.32,0,0,0,0,0.093193
2023/10/29 04:34:00.001,n,278,4.68,3.6,5.76,14.9,68.6,1022.42,0,0,0,0,0.108833
2023/10/29 04:35:00.010,n,273,2.16,1.44,2.52,14.9,68.7,1022.42,0,0,0,0,0.139275
2023/10/29 04:36:00.002,n,280,3.24,2.16,5.04,14.8,68.5,1022.42,0,0,0,0,0.177574
2023/10/29 04:37:00.019,n,276,5.4,3.6,5.76,14.8,68.5,1022.42,0,0,0,0,0.21843
2023/10/29 04:38:00.016,n,179,1.8,1.44,3.24,14.8,68.5,1022.42,0,0,0,0,0.275841
2023/10/29 04:39:00.022,n,305,1.8,1.08,2.52,14.8,68.8,1022.52,0,0,0,0,0.345383
2023/10/29 04:40:00.005,n,257,2.88,2.16,3.6,14.8,68.6,1022.52,0,0,0,0,0.433998
2023/10/29 04:41:00.001,n,290,3.24,1.8,3.96,14.8,68.6,1022.52,0,0,0,0,0.535622
2023/10/29 04:42:00.002,n,284,3.24,2.88,3.24,14.8,68.5,1022.52,0,0,0,0,0.654488
2023/10/29 04:43:00.002,n,267,4.68,4.32,5.4,14.8,68.5,1022.52,0,0,0,0,0.793076
2023/10/29 04:44:00.006,n,310,1.8,0.36,2.16,14.7,68.7,1022.52,0,0,0,0,0.94883
2023/10/29 04:45:00.016,n,280,5.04,4.68,5.04,14.7,68.7,1022.52,0,0,0,0,1.13224
2023/10/29 04:46:00.007,n,195,3.24,2.52,4.68,14.7,68.7,1022.52,0,0,0,0,1.342354
2023/10/29 04:47:00.004,n,265,5.76,5.04,6.12,14.7,68.8,1022.52,0,0,0,0,1.592941
2023/10/29 04:48:00.014,n,288,4.32,1.08,6.12,14.7,68.7,1022.52,0,0,0,0,1.881218
2023/10/29 04:49:00.001,n,284,4.68,3.96,5.4,14.7,68.8,1022.62,0,0,0,0,2.196159